Weather History for Montauk, NY

Change the Weather History Date:

Saturday, July 6, 2013

  Actual Average (KHTO) Record (KHTO)
Temperature  
Mean Temperature 81 °F -  
Max Temperature 90 °F 78 °F 98 °F (1999)
Min Temperature 73 °F 61 °F 49 °F (1962)
Cooling Degree Days 16    
Growing Degree Days 31 (Base 50)    
Moisture  
Dew Point 72 °F    
Average Humidity 75    
Maximum Humidity 91    
Minimum Humidity 57    
Precipitation  
Precipitation 0.00 in - - ()
Sea Level Pressure  
Sea Level Pressure 30.09 in    
Wind  
Wind Speed 6 mph (SW)    
Max Wind Speed 9 mph    
Max Gust Speed 16 mph    
Averages and records for this station are not official NWS values.
T = Trace of Precipitation, MM = Missing Value Source: NWS Daily Summary

Daily Weather History Graph

Daily Weather History Graph

Search for Another Location

Airport:

Trip Planner

Search our weather history database for the weather conditions in past years. The results will help you decide how hot, cold, wet, or windy it might be!

Date:

Astronomy

Jul. 06, 2013 Rise Set
Actual Time 5:22 AM EDT 8:22 PM EDT
Civil Twilight 4:48 AM EDT 8:55 PM EDT
Nautical Twilight 4:06 AM EDT 9:38 PM EDT
Astronomical Twilight 3:16 AM EDT 10:27 PM EDT
Moon 4:05 AM EDT (7/6) 7:01 PM EDT (7/6)
Length of Visible Light 16h 07m
Length of Day
15h 00m
Waning Crescent, 2% of the Moon is Illuminated
Jul 6
Waning Crescent
Jul 8
New
Jul 15
First Quarter
Jul 22
Full
Jul 29
Last Quarter

Hourly Weather History & Observations

Time (EDT) Temp. Heat Index Dew Point Humidity Pressure Visibility Wind Dir Wind Speed Gust Speed Precip Events Conditions
12:54 AM 73.9 °F - 70.0 °F 87% 30.13 in - SW 8.1 mph - N/A   Unknown
1:54 AM 75.0 °F - 70.0 °F 84% 30.12 in - SW 6.9 mph 16.1 mph N/A   Unknown
2:54 AM 75.0 °F - 70.0 °F 84% 30.14 in - SW 5.8 mph - N/A   Unknown
3:54 AM 75.0 °F - 71.1 °F 87% 30.13 in - SW 3.5 mph - N/A   Unknown
4:54 AM 73.9 °F - 71.1 °F 91% 30.13 in - SW 3.5 mph - N/A   Unknown
5:54 AM 73.9 °F - 71.1 °F 91% 30.14 in - SW 4.6 mph - N/A   Unknown
6:54 AM 75.0 °F - 71.1 °F 87% 30.14 in - SW 5.8 mph - N/A   Unknown
7:54 AM 78.1 °F - 72.0 °F 81% 30.14 in - Variable 4.6 mph - N/A   Unknown
8:54 AM 81.0 °F 85.8 °F 73.0 °F 77% 30.13 in - WSW 6.9 mph - N/A   Unknown
9:54 AM 82.9 °F 88.8 °F 73.0 °F 72% 30.12 in - WSW 6.9 mph - N/A   Unknown
10:54 AM 84.9 °F 91.4 °F 73.0 °F 67% 30.11 in - WSW 8.1 mph - N/A   Unknown
11:54 AM 86.0 °F 93.0 °F 73.0 °F 65% 30.10 in - WSW 9.2 mph - N/A   Unknown
12:54 PM 88.0 °F 95.6 °F 73.0 °F 61% 30.09 in - WSW 5.8 mph - N/A   Unknown
1:54 PM 87.1 °F 96.3 °F 75.0 °F 67% 30.08 in - Variable 4.6 mph - N/A   Unknown
2:54 PM 88.0 °F 94.7 °F 72.0 °F 59% 30.07 in - WSW 6.9 mph - N/A   Unknown
3:54 PM 89.1 °F 96.0 °F 72.0 °F 57% 30.06 in - WSW 8.1 mph - N/A   Unknown
4:54 PM 89.1 °F 96.0 °F 72.0 °F 57% 30.05 in - SW 5.8 mph - N/A   Unknown
5:54 PM 86.0 °F 93.8 °F 73.9 °F 67% 30.04 in - SSW 4.6 mph - N/A   Unknown
6:54 PM 82.9 °F 88.0 °F 72.0 °F 69% 30.03 in - SW 5.8 mph - N/A   Unknown
7:54 PM 81.0 °F 84.9 °F 71.1 °F 72% 30.03 in - SW 6.9 mph - N/A   Unknown
8:54 PM 80.1 °F 83.6 °F 71.1 °F 74% 30.04 in - SW 5.8 mph - N/A   Unknown
9:54 PM 79.0 °F - 71.1 °F 77% 30.05 in - SW 3.5 mph - N/A   Unknown
10:54 PM 77.0 °F - 71.1 °F 82% 30.06 in - Calm Calm - N/A   Unknown
11:54 PM 78.1 °F - 71.1 °F 79% 30.06 in - Calm Calm - N/A   Unknown